Dati Storici

Data ora Umidita' aria (%) Temperatura aria (°C) Rad globale (W/m²) Gonioanemometro (°) Tacoanemometro (m/s) Pioggia (mm)
30-06-2020 04:50 77.6 % 21.166 -63.293 1.7 0 0
30-06-2020 04:40 77.6 % 21.165 -64.189 1.745 0 0
30-06-2020 04:30 77.6 % 21.21 -35.96 2.797 0 0
30-06-2020 04:20 77.3 % 21.21 -62.489 2.605 0 0
30-06-2020 04:10 77.1 % 21.234 -74.11 2.215 0 0
30-06-2020 04:00 76.6 % 21.279 -72.232 3.668 0 0
30-06-2020 03:50 75.9 % 21.403 -58.437 2.832 0 0
30-06-2020 03:40 76 % 21.437 -67.41 1.959 0 0
30-06-2020 03:30 75.9 % 21.477 -79.465 2.675 0 0
30-06-2020 03:20 75.7 % 21.523 -68.845 1.734 0 0
30-06-2020 03:10 75.6 % 21.51 -48.574 0.969 0 0
30-06-2020 03:00 75.6 % 21.51 -70.766 3.031 0 0
30-06-2020 02:50 76 % 21.535 -72.956 1.99 0 0
30-06-2020 02:40 76.2 % 21.497 -61.172 3.087 0 0
30-06-2020 02:30 76.5 % 21.522 -56.411 1.845 0 0
30-06-2020 02:20 76.8 % 21.572 -64.845 1.84 0 0
30-06-2020 02:10 77.2 % 21.653 -48.737 2.088 0 0
30-06-2020 02:00 77.1 % 21.724 -68.211 2.285 0 0
30-06-2020 01:50 77.3 % 21.783 12.165 1.68 0 0
30-06-2020 01:40 77.3 % 21.894 -79.712 2.224 0 0

I dati sono presentati in modo automatico a scopo informativo. In seguito a verifica i dati possono subire modifiche o essere invalidati e non riportati negli archivi definitivi.